Location: Caserta
(41.0670°N, 14.3330°E)
Time: 04:39:46
(UTC+02:00)

STARLINK-1341 - Pass Details

Date: 05 October 2020
Orbit: 549 x 550 km, 53.0° (Epoch: 20 October)

Event Time Altitude Azimuth Distance (km) Brightness Sun altitude
Exits shadow 04:07:32 15° 31° (NNE) 1,514 6.4 -33.2°
Drops below altitude 10° 04:08:27 10° 38° (NE) 1,825 7.0 -33.0°
Sets 04:10:51 0° 49° (NE) 2,721 8.2 -32.6°
